Weather History for Glenwood, MN

Change the Weather History Date:

Thursday, September 5, 2013

  Actual Average Record
Temperature  
Mean Temperature 72 °F -  
Max Temperature 84 °F 77 °F 94 °F (1960)
Min Temperature 60 °F 50 °F 36 °F (1962)
Cooling Degree Days 7    
Growing Degree Days 22 (Base 50)    
Moisture  
Dew Point 61 °F    
Average Humidity 71    
Maximum Humidity 94    
Minimum Humidity 50    
Precipitation  
Precipitation 0.00 in - - ()
Sea Level Pressure  
Sea Level Pressure 30.17 in    
Wind  
Wind Speed 8 mph (ESE)    
Max Wind Speed 13 mph    
Max Gust Speed 17 mph    
Visibility 10 miles    
Events Thunderstorm    
Averages and records for this station are not official NWS values.
T = Trace of Precipitation, MM = Missing Value Source: NWS Daily Summary

Daily Weather History Graph

Daily Weather History Graph

Search for Another Location

Airport:

Trip Planner

Search our weather history database for the weather conditions in past years. The results will help you decide how hot, cold, wet, or windy it might be!

Date:

Astronomy

Sep. 05, 2013 Rise Set
Actual Time 6:47 AM CDT 7:51 PM CDT
Civil Twilight 6:17 AM CDT 8:21 PM CDT
Nautical Twilight 5:40 AM CDT 8:57 PM CDT
Astronomical Twilight 5:02 AM CDT 9:35 PM CDT
Moon 7:03 AM CDT (9/5) 7:38 PM CDT (9/5)
Length of Visible Light 14h 04m
Length of Day
13h 03m
Waxing Crescent, 0% of the Moon is Illuminated
Sep 5
Waxing Crescent
Sep 12
First Quarter
Sep 19
Full
Sep 26
Last Quarter
Oct 4
New

Hourly Weather History & Observations

Time (CDT) Temp. Heat Index Dew Point Humidity Pressure Visibility Wind Dir Wind Speed Gust Speed Precip Events Conditions
12:13 AM 60.8 °F - 57.2 °F 88% 30.19 in 10.0 mi ENE 6.9 mph - N/A   Clear
12:34 AM 60.8 °F - 57.2 °F 88% 30.19 in 10.0 mi ENE 6.9 mph - N/A   Clear
12:53 AM 60.8 °F - 57.2 °F 88% 30.19 in 10.0 mi ENE 6.9 mph - N/A   Clear
1:13 AM 60.8 °F - 57.2 °F 88% 30.19 in 10.0 mi ENE 6.9 mph - N/A   Clear
1:33 AM 60.8 °F - 57.2 °F 88% 30.19 in 10.0 mi NE 8.1 mph - N/A   Clear
1:53 AM 60.8 °F - 57.2 °F 88% 30.19 in 10.0 mi ENE 6.9 mph - N/A   Clear
2:13 AM 60.8 °F - 57.2 °F 88% 30.19 in 10.0 mi ENE 8.1 mph - N/A   Clear
2:33 AM 60.8 °F - 57.2 °F 88% 30.19 in 10.0 mi ENE 6.9 mph - N/A   Clear
2:53 AM 60.8 °F - 57.2 °F 88% 30.19 in 10.0 mi ENE 8.1 mph - N/A   Clear
3:13 AM 60.8 °F - 57.2 °F 88% 30.19 in 10.0 mi ENE 6.9 mph - N/A   Clear
3:33 AM 60.8 °F - 57.2 °F 88% 30.19 in 10.0 mi East 6.9 mph - N/A   Clear
3:54 AM 60.8 °F - 57.2 °F 88% 30.20 in 10.0 mi ENE 5.8 mph - N/A   Clear
4:13 AM 60.8 °F - 57.2 °F 88% 30.19 in 10.0 mi East 6.9 mph - N/A   Clear
4:33 AM 60.8 °F - 57.2 °F 88% 30.20 in 10.0 mi East 5.8 mph - N/A   Clear
4:53 AM 60.8 °F - 57.2 °F 88% 30.20 in 10.0 mi East 5.8 mph - N/A   Clear
5:13 AM 60.8 °F - 55.4 °F 82% 30.20 in 10.0 mi East 6.9 mph - N/A   Clear
5:33 AM 60.8 °F - 55.4 °F 82% 30.20 in 10.0 mi East 5.8 mph - N/A   Clear
5:53 AM 60.8 °F - 55.4 °F 82% 30.20 in 10.0 mi East 5.8 mph - N/A   Clear
6:13 AM 60.8 °F - 55.4 °F 82% 30.20 in 10.0 mi East 5.8 mph - N/A   Scattered Clouds
6:34 AM 60.8 °F - 55.4 °F 82% 30.21 in 10.0 mi East 4.6 mph - N/A   Mostly Cloudy
6:53 AM 62.6 °F - 55.4 °F 77% 30.21 in 10.0 mi ESE 5.8 mph - N/A   Overcast
7:13 AM 62.6 °F - 55.4 °F 77% 30.21 in 10.0 mi East 8.1 mph - N/A   Overcast
7:33 AM 62.6 °F - 55.4 °F 77% 30.21 in 10.0 mi East 6.9 mph - N/A   Overcast
7:53 AM 62.6 °F - 57.2 °F 82% 30.21 in 10.0 mi East 6.9 mph - N/A   Overcast
8:13 AM 64.4 °F - 55.4 °F 73% 30.21 in 10.0 mi East 9.2 mph - N/A   Overcast
8:33 AM 64.4 °F - 55.4 °F 73% 30.21 in 10.0 mi East 9.2 mph - N/A   Overcast
8:53 AM 64.4 °F - 55.4 °F 73% 30.20 in 10.0 mi East 10.4 mph - N/A   Mostly Cloudy
9:14 AM 66.2 °F - 55.4 °F 68% 30.21 in 10.0 mi ESE 10.4 mph - N/A   Scattered Clouds
9:33 AM 69.8 °F - 55.4 °F 60% 30.22 in 10.0 mi ESE 8.1 mph - N/A   Mostly Cloudy
9:53 AM 69.8 °F - 55.4 °F 60% 30.22 in 10.0 mi East 11.5 mph - N/A   Scattered Clouds
10:13 AM 71.6 °F - 55.4 °F 57% 30.22 in 10.0 mi ESE 10.4 mph - N/A   Clear
10:33 AM 71.6 °F - 57.2 °F 60% 30.22 in 10.0 mi ESE 10.4 mph - N/A   Clear
10:54 AM 73.4 °F - 57.2 °F 57% 30.22 in 10.0 mi ESE 10.4 mph - N/A   Clear
11:13 AM 75.2 °F - 57.2 °F 53% 30.22 in 10.0 mi ESE 8.1 mph - N/A   Clear
11:33 AM 77.0 °F - 57.2 °F 50% 30.22 in 10.0 mi ESE 9.2 mph - N/A   Clear
11:53 AM 78.8 °F - 59.0 °F 51% 30.21 in 10.0 mi SE 10.4 mph - N/A   Clear
12:13 PM 78.8 °F - 59.0 °F 51% 30.21 in 10.0 mi SE 9.2 mph - N/A   Clear
12:34 PM 80.6 °F 81.5 °F 60.8 °F 51% 30.20 in 10.0 mi SE 8.1 mph - N/A   Clear
12:53 PM 80.6 °F 81.5 °F 60.8 °F 51% 30.19 in 10.0 mi SE 8.1 mph - N/A   Clear
1:13 PM 82.4 °F 83.4 °F 62.6 °F 51% 30.19 in 10.0 mi SE 9.2 mph - N/A   Clear
1:33 PM 82.4 °F 83.4 °F 62.6 °F 51% 30.18 in 10.0 mi SE 11.5 mph - N/A   Clear
1:53 PM 82.4 °F 83.9 °F 64.4 °F 54% 30.18 in 10.0 mi SE 11.5 mph - N/A   Clear
2:14 PM 84.2 °F 85.6 °F 64.4 °F 51% 30.17 in 10.0 mi SSE 12.7 mph 16.1 mph N/A   Clear
2:33 PM 84.2 °F 85.6 °F 64.4 °F 51% 30.16 in 10.0 mi SE 10.4 mph 16.1 mph N/A   Clear
2:53 PM 84.2 °F 85.6 °F 64.4 °F 51% 30.16 in 10.0 mi SE 10.4 mph - N/A   Clear
3:13 PM 84.2 °F 85.6 °F 64.4 °F 51% 30.15 in 10.0 mi SE 10.4 mph - N/A   Clear
3:33 PM 84.2 °F 85.6 °F 64.4 °F 51% 30.15 in 10.0 mi ESE 9.2 mph - N/A   Clear
3:53 PM 84.2 °F 85.6 °F 64.4 °F 51% 30.14 in 10.0 mi SE 10.4 mph - N/A   Clear
4:13 PM 84.2 °F 85.6 °F 64.4 °F 51% 30.14 in 10.0 mi SE 10.4 mph - N/A   Clear
4:33 PM 84.2 °F 85.6 °F 64.4 °F 51% 30.13 in 10.0 mi SE 11.5 mph - N/A   Clear
4:54 PM 82.4 °F 83.9 °F 64.4 °F 54% 30.13 in 10.0 mi SE 10.4 mph 17.3 mph N/A   Clear
5:13 PM 82.4 °F 83.9 °F 64.4 °F 54% 30.13 in 10.0 mi SE 9.2 mph - N/A   Clear
5:34 PM 82.4 °F 84.6 °F 66.2 °F 58% 30.12 in 10.0 mi SSE 8.1 mph - N/A   Clear
5:53 PM 82.4 °F 84.6 °F 66.2 °F 58% 30.12 in 10.0 mi SSE 9.2 mph - N/A   Clear
6:13 PM 82.4 °F 84.6 °F 66.2 °F 58% 30.13 in 10.0 mi SSE 6.9 mph - N/A   Clear
6:33 PM 80.6 °F 82.7 °F 66.2 °F 61% 30.12 in 10.0 mi SE 6.9 mph - N/A   Clear
6:53 PM 80.6 °F 82.7 °F 66.2 °F 61% 30.11 in 10.0 mi SE 8.1 mph - N/A   Clear
7:14 PM 78.8 °F - 66.2 °F 65% 30.10 in 1.0 mi SE 6.9 mph - N/A   Clear
7:33 PM 77.0 °F - 66.2 °F 69% 30.10 in 10.0 mi SE 4.6 mph - N/A Thunderstorm Clear
7:53 PM 75.2 °F - 66.2 °F 73% 30.10 in 10.0 mi SE 6.9 mph - N/A   Clear
8:13 PM 73.4 °F - 66.2 °F 78% 30.10 in 10.0 mi SE 6.9 mph - N/A Thunderstorm Thunderstorm
8:33 PM 71.6 °F - 66.2 °F 83% 30.10 in 10.0 mi ESE 5.8 mph - N/A Thunderstorm Clear
8:54 PM 71.6 °F - 66.2 °F 83% 30.10 in 10.0 mi ESE 5.8 mph - N/A   Clear
9:13 PM 71.6 °F - 66.2 °F 83% 30.10 in 10.0 mi ESE 6.9 mph - N/A   Clear
9:32 PM 71.6 °F - 66.2 °F 83% 30.10 in 10.0 mi ESE 5.8 mph - N/A   Clear
9:53 PM 71.6 °F - 66.2 °F 83% 30.10 in 10.0 mi SE 6.9 mph - N/A Thunderstorm Clear
10:13 PM 71.6 °F - 66.2 °F 83% 30.10 in 10.0 mi ESE 5.8 mph - N/A   Clear
10:34 PM 69.8 °F - 66.2 °F 88% 30.09 in 10.0 mi ESE 8.1 mph - N/A   Clear
10:53 PM 69.8 °F - 66.2 °F 88% 30.09 in 10.0 mi ESE 8.1 mph - N/A   Clear
11:13 PM 69.8 °F - 66.2 °F 88% 30.09 in 10.0 mi SE 5.8 mph - N/A   Clear
11:33 PM 68.0 °F - 66.2 °F 94% 30.09 in 10.0 mi SSE 4.6 mph - N/A   Clear
11:53 PM 68.0 °F - 66.2 °F 94% 30.08 in 10.0 mi SE 5.8 mph - N/A   Clear